AirNav   Everest Fuels
 
 396 users online  

2E2 Sharpe's Strip Airport
Emmett, Michigan, USA

GOING TO EMMETT?


FAA INFORMATION EFFECTIVE 16 JULY 2020

Location

FAA Identifier: 2E2
Lat/Long: 42-57-05.7900N 082-46-33.1150W
42-57.096500N 082-46.551917W
42.9516083,-82.7758653
(estimated)
Elevation: 781 ft. / 238 m (estimated)
From city: 2 miles S of EMMETT, MI
Time zone: UTC -4 (UTC -5 during Standard Time)
Zip code: 48041

Airport Operations

Airport use: Open to the public
Activation date: 11/2003
Control tower: no
ARTCC: CLEVELAND CENTER
FSS: LANSING FLIGHT SERVICE STATION
NOTAMs facility: LAN (NOTAM-D service available)
Attendance: IREG
Wind indicator: yes
Segmented circle: no

Airport Communications

CTAF: 122.9
WX AWOS-3 at PHN (11 nm E): 118.375 (810-364-7787)

Nearby radio navigation aids

NDB name  Hdg/Dist  Freq  Var  ID
PHURN317/10.233207WPH .--. ....

Airport Services

Runway Information

Runway 18/36

Dimensions: 2700 x 90 ft. / 823 x 27 m
Surface: turf, in fair condition
Runway edge markings: RWY 36 & DSPLCD THLD MKD WITH 3 FT YELLOW CONES.
RUNWAY 18  RUNWAY 36
Latitude: 42-57.318500N42-56.874500N
Longitude: 082-46.564167W082-46.539667W
Elevation: 779.0 ft.780.0 ft.
Traffic pattern: leftleft
Runway heading: 178 true358 true
Displaced threshold: 700 ft.no
Obstructions: 27 ft. pline, marked, 100 ft. from runway, 23 ft. left of centerline, 3:1 slope to clear
APCH RATIO 0:1 TO DSPLCD THLD, +46 FT TREES 0 FT DSTC, 96 FT R.
28 ft. trees, 115 ft. right of centerline

Airport Ownership and Management from official FAA records

Ownership: Privately-owned
Owner: VERNON SHARPE
11371 HILL ROAD
RILEY, MI 48041
Phone 810-384-6668
Manager: VERNON SHARPE
11371 HILL ROAD
RILEY, MI 48041
Phone 810-384-6668

Airport Operational Statistics

Aircraft based on the field: 1
Single engine airplanes: 1
    
Aircraft operations: 100/year *
50% transient general aviation
50% local general aviation
* for 12-month period ending 31 December 2018

Additional Remarks

DEER & TURKEYS INVOF ARPT.
FOR IFR CLEARANCE CTC CLEVELAND ARTCC (ZOB) 126.52/285.52 OR CALL ZOB 440-774-0224.
CTC ARPT MGR FOR RWY CONDS WHEN SNOW COVERED 810-384-6668.

Instrument Procedures

There are no published instrument procedures at 2E2.

Some nearby airports with instrument procedures:

KPHN - St Clair County International Airport (11 nm E)
D98 - Romeo State Airport (13 nm SW)
57D - Ray Community Airport (14 nm S)
KMTC - Selfridge Air National Guard Base (20 nm S)
D95 - Dupont-Lapeer Airport (23 nm W)
 
Loc | Ops | Rwys | IFR | FBO | Links
Com | Nav | Svcs | Stats | Notes
Area around 2E2 (Sharpe's Strip Airport)
 
Road maps at: MapQuest Bing Google
 
Aerial photo
WARNING: Photo may not be current or correct
Aerial photo of 2E2 (Sharpe's Strip Airport)
Photo by Vic Adamko
Taken in the Summer of 2004

Do you have a better or more recent aerial photo of Sharpe's Strip Airport that you would like to share? If so, please send us your photo.

 
Sectional chart

 
Airport distance calculator
Flying to Sharpe's Strip Airport? Find the distance to fly.

From to 2E2

Sunrise and sunset
Times for 08-Aug-2020
 Local
(UTC-4)
 Zulu
(UTC)
Morning civil twilight06:0010:00
Sunrise06:3210:32
Sunset20:4200:42
Evening civil twilight21:1301:13

Current date and time
Zulu (UTC)  08-Aug-2020 07:03:30
Local (UTC-4)  08-Aug-2020 03:03:30
 
METAR
KPHN 
12nm E 
080655Z AUTO 00000KT 3/4SM BR VV005 12/11 A3018 RMK AO2
KMTC 
20nm S 
080656Z AUTO 00000KT 10SM CLR 17/16 A3016 RMK AO2 SLP216 T01690164 $
CYZR 
21nm E 
080600Z AUTO 19003KT 9SM CLR 15/13 A3017 RMK SLP217
KD95 
23nm W 
080655Z AUTO 00000KT 14/14 A3019 RMK AO2 T01360136
TAF
KMTC 
20nm S 
080100Z 0801/0907 VRB06KT 9999 FEW050 QNH3008INS TX27/0820Z TN15/0811Z LAST NO AMDS AFT 0803 NEXT 0809
CYZR 
21nm E 
071938Z 0720/0802 02008KT P6SM SKC BECMG 0800/0802 VRB03KT RMK FCST BASED ON AUTO OBS. NXT FCST WILL BE ISSUED AT 080745Z
NOTAMs
Click for the latest NOTAMs
NOTAMs are issued by the DoD/FAA and will open in a separate window not controlled by AirNav.

 

 
 

Would you like to see your business listed on this page?

 If your business provides an interesting product or service to pilots, flight crews, aircraft, or users of the Sharpe's Strip Airport, you should consider listing it here.  To start the listing process, click on the button below
 
Add a business
 

Other Pages about Sharpe's Strip Airport

Page from the Michigan Airport Directory (PDF)
 
Update a link
 
Copyright © AirNav, LLC. All rights reserved. Privacy Policy  Contact